Showing default

FFLY-2, 65322

Orbit data source: Space-Track

FFLY-2, 65322 is a payload satellite owned by Pixxel (US) in SSO that was launched on Tue, 26 Aug 2025 UTC via an FALCON 9 launch vehicle from the Air Force Western Test Range (AFWTR). Payload-class satellites include a variety of spacecraft equipped with specific instruments for various scientific and technological missions. These include communications satellites like Starlink; space stations such as the ISS; scientific satellites like the Hubble; Earth observation satellites from companies like Planet Labs, Umbra, and HawkEye 360; GPS; miniature CubeSats for education and research; and military/defense satellites.

Loading next visibility...
Identifier
65322, 2025-188H
Orbit
SSO
Country
Flag of USUS
Related business
Manufacturer
Pixxel
Mission
Operational Commercial Imaging
Bus & Motor
FIREFLY, Unknown motor
Mass
60 kg wet, 60 kg dry
Launch date (UTC)
2025-08-26 (8 months ago)
Launch vehicle
FALCON 9
Launch site
Air Force Western Test Range (AFWTR)
Object type
Payload
Rocket body
Debris
Shape & HBR
Box + 2 Pan, 14.5 m
Radar Cross Section
0.338 m², Medium (>0.1 m² and < 1m²)

Expand to show TLE details & history
Last TLE update: 11 hours ago

TLE from 11 hours ago
0 FFLY-2
1 65322U 25188H   26124.17821260  .00001267  00000-0  12770-3 0  9990
2 65322  97.7376 200.1589 0011355 272.7262  87.2658 14.92848830 37347
Epoch: 2026-05-04T04:16Z
TLE epoch observation values (Epoch: 2026-05-04T04:16:37.568Z)
Latitude
Longitude
-86.06877°
Altitude
591.733 km
Speed
7.564 km/s
True Right ascension
13h 20m 38s
True Declination
0° 00' 00"
Sunlit
Object was in full shadow at epoch
Visualization orbit readout
Latitude
Unknown
Longitude
Unknown
Altitude
Unknown
Speed
Unknown
Apparent Right ascension
Unknown
Apparent Declination
Unknown
Sunlit
N/A
Visualization observer readout
Local Sidereal Time
22:49:11
Azimuth
Unknown
Elevation
Unknown
Doppler factor
Unknown
Orbital elements
Apogee altitude
593.982 km
Perigee altitude
578.166 km
Semi-major axis
6,964.211 km
Eccentricity
0.00114
Inclination
97.7376°
RAAN
200.1589°
Arg. of periapsis
272.7262°
True anomaly
87.39578°
Mean anomaly
87.2658°
Eccentric anomaly
87.33079°
Mean motion
3.73452 °/min
Orbital period
96.4 mins
BSTAR
0.0001277
Loading maneuver chart data...
Computing Atmospheric mass density...
Loading historical data...
Loading historical data...
Loading historical data...
Loading historical data...
Loading historical data...
Loading historical data...
Loading historical data...

Documentation

Showing up to 5 results
|